Time,TemperatureF,DewpointF,PressureIn,WindDirection,WindDirectionDegrees,WindSpeedMPH,WindSpeedGustMPH,Humidity,HourlyPrecipIn,Conditions,Clouds,dailyrainin,SoftwareType,DateUTC
2013-06-22 00:01:00,75.6,71.5,30.08,North,0,0.0,0.0,87,0.00,,,1.80,WUHU216HW,2013-06-22 04:01:00,
2013-06-22 00:06:00,75.6,71.5,30.08,North,0,0.0,0.0,87,0.00,,,0.00,WUHU216HW,2013-06-22 04:06:00,
2013-06-22 00:11:00,75.4,71.4,30.08,North,0,0.0,0.0,87,0.00,,,0.00,WUHU216HW,2013-06-22 04:11:00,
2013-06-22 00:16:00,75.4,71.4,30.08,North,0,0.0,0.0,87,0.00,,,0.00,WUHU216HW,2013-06-22 04:16:00,
2013-06-22 00:21:00,75.4,71.4,30.08,North,0,0.0,0.0,87,0.00,,,0.00,WUHU216HW,2013-06-22 04:21:00,
2013-06-22 00:26:00,75.4,71.4,30.08,North,0,0.0,0.0,87,0.00,,,0.00,WUHU216HW,2013-06-22 04:26:00,
2013-06-22 00:31:00,75.4,71.4,30.08,North,0,0.0,0.0,87,0.00,,,0.00,WUHU216HW,2013-06-22 04:31:00,
2013-06-22 00:36:00,75.4,71.4,30.08,North,0,0.0,0.0,87,0.00,,,0.00,WUHU216HW,2013-06-22 04:36:00,
2013-06-22 00:41:00,75.2,71.2,30.08,North,0,0.0,0.0,87,0.00,,,0.00,WUHU216HW,2013-06-22 04:41:00,
2013-06-22 00:46:00,75.2,71.2,30.08,North,0,0.0,0.0,87,0.00,,,0.00,WUHU216HW,2013-06-22 04:46:00,
2013-06-22 00:51:00,75.2,71.2,30.07,North,0,0.0,0.0,87,0.00,,,0.00,WUHU216HW,2013-06-22 04:51:00,
2013-06-22 00:56:00,75.2,71.2,30.07,North,0,0.0,0.0,87,0.00,,,0.00,WUHU216HW,2013-06-22 04:56:00,
2013-06-22 01:01:00,75.2,71.2,30.07,North,0,0.0,0.0,87,0.00,,,0.00,WUHU216HW,2013-06-22 05:01:00,
2013-06-22 01:06:00,75.2,71.2,30.07,North,0,0.0,0.0,87,0.00,,,0.00,WUHU216HW,2013-06-22 05:06:00,
2013-06-22 01:11:00,75.2,71.2,30.06,North,0,0.0,0.0,87,0.00,,,0.00,WUHU216HW,2013-06-22 05:11:00,
2013-06-22 01:16:00,75.2,71.2,30.06,North,0,0.0,0.0,87,0.00,,,0.00,WUHU216HW,2013-06-22 05:16:00,
2013-06-22 01:21:00,75.2,71.2,30.06,North,0,0.0,0.0,87,0.00,,,0.00,WUHU216HW,2013-06-22 05:21:00,
2013-06-22 01:26:00,75.2,71.2,30.06,North,0,0.0,0.0,87,0.00,,,0.00,WUHU216HW,2013-06-22 05:26:00,
2013-06-22 01:31:00,75.2,71.2,30.05,North,0,0.0,0.0,87,0.00,,,0.00,WUHU216HW,2013-06-22 05:31:00,
2013-06-22 01:36:00,75.2,71.2,30.05,North,0,0.0,0.0,87,0.00,,,0.00,WUHU216HW,2013-06-22 05:36:00,
2013-06-22 01:41:00,75.2,71.2,30.05,North,0,0.0,0.0,87,0.00,,,0.00,WUHU216HW,2013-06-22 05:41:00,
2013-06-22 01:46:00,75.2,71.2,30.05,North,0,0.0,0.0,87,0.00,,,0.00,WUHU216HW,2013-06-22 05:46:00,
2013-06-22 01:51:00,75.2,71.2,30.05,North,0,0.0,0.0,87,0.00,,,0.00,WUHU216HW,2013-06-22 05:51:00,
2013-06-22 01:56:00,75.1,71.0,30.05,North,0,0.0,0.0,87,0.00,,,0.00,WUHU216HW,2013-06-22 05:56:00,
2013-06-22 02:01:00,75.1,71.0,30.05,North,0,0.0,0.0,87,0.00,,,0.00,WUHU216HW,2013-06-22 06:01:00,
2013-06-22 02:06:00,75.1,71.0,30.05,North,0,0.0,0.0,87,0.00,,,0.00,WUHU216HW,2013-06-22 06:06:00,
2013-06-22 02:11:00,75.1,71.0,30.05,North,0,0.0,0.0,87,0.00,,,0.00,WUHU216HW,2013-06-22 06:11:00,
2013-06-22 02:16:00,75.1,71.0,30.05,North,0,0.0,0.0,87,0.00,,,0.00,WUHU216HW,2013-06-22 06:16:00,
2013-06-22 02:21:00,75.1,71.0,30.05,North,0,0.0,0.0,87,0.00,,,0.00,WUHU216HW,2013-06-22 06:21:00,
2013-06-22 02:26:00,74.9,71.1,30.05,North,0,0.0,0.0,88,0.00,,,0.00,WUHU216HW,2013-06-22 06:26:00,
2013-06-22 02:31:00,75.1,71.3,30.05,North,0,0.0,0.0,88,0.00,,,0.00,WUHU216HW,2013-06-22 06:31:00,
2013-06-22 02:36:00,75.1,71.3,30.05,North,0,0.0,0.0,88,0.00,,,0.00,WUHU216HW,2013-06-22 06:36:00,
2013-06-22 02:41:00,75.1,71.3,30.05,North,0,0.0,0.0,88,0.00,,,0.00,WUHU216HW,2013-06-22 06:41:00,
2013-06-22 02:46:00,75.1,71.3,30.05,North,0,0.0,0.0,88,0.00,,,0.00,WUHU216HW,2013-06-22 06:46:00,
2013-06-22 02:51:00,74.9,71.1,30.05,North,0,0.0,0.0,88,0.00,,,0.00,WUHU216HW,2013-06-22 06:51:00,
2013-06-22 02:56:00,74.9,71.1,30.05,North,0,0.0,0.0,88,0.00,,,0.00,WUHU216HW,2013-06-22 06:56:00,
2013-06-22 03:01:00,75.1,71.3,30.05,North,0,0.0,0.0,88,0.00,,,0.00,WUHU216HW,2013-06-22 07:01:00,
2013-06-22 03:06:00,74.9,71.1,30.04,North,0,0.0,0.0,88,0.00,,,0.00,WUHU216HW,2013-06-22 07:06:00,
2013-06-22 03:11:00,74.9,71.1,30.04,North,0,0.0,0.0,88,0.00,,,0.00,WUHU216HW,2013-06-22 07:11:00,
2013-06-22 03:16:00,74.9,71.1,30.04,North,0,0.0,0.0,88,0.00,,,0.00,WUHU216HW,2013-06-22 07:16:00,
2013-06-22 03:21:00,74.9,70.8,30.04,North,0,0.0,0.0,87,0.00,,,0.00,WUHU216HW,2013-06-22 07:21:00,
2013-06-22 03:26:00,74.9,71.1,30.04,North,0,0.0,0.0,88,0.00,,,0.00,WUHU216HW,2013-06-22 07:26:00,
2013-06-22 03:31:00,74.7,70.9,30.03,North,0,0.0,0.0,88,0.00,,,0.00,WUHU216HW,2013-06-22 07:31:00,
2013-06-22 03:36:00,74.7,70.9,30.04,North,0,0.0,0.0,88,0.00,,,0.00,WUHU216HW,2013-06-22 07:36:00,
2013-06-22 03:41:00,74.7,70.9,30.04,North,0,0.0,0.0,88,0.00,,,0.00,WUHU216HW,2013-06-22 07:41:00,
2013-06-22 03:46:00,74.5,70.7,30.04,North,0,0.0,0.0,88,0.00,,,0.00,WUHU216HW,2013-06-22 07:46:00,
2013-06-22 03:51:00,74.5,70.7,30.04,North,0,0.0,0.0,88,0.00,,,0.00,WUHU216HW,2013-06-22 07:51:00,
2013-06-22 03:56:00,74.5,70.7,30.04,North,0,0.0,0.0,88,0.00,,,0.00,WUHU216HW,2013-06-22 07:56:00,
2013-06-22 04:01:00,74.5,70.7,30.04,North,0,0.0,0.0,88,0.00,,,0.00,WUHU216HW,2013-06-22 08:01:00,
2013-06-22 04:06:00,74.5,70.7,30.04,North,0,0.0,0.0,88,0.00,,,0.00,WUHU216HW,2013-06-22 08:06:00,
2013-06-22 04:11:00,74.5,70.7,30.04,North,0,0.0,0.0,88,0.00,,,0.00,WUHU216HW,2013-06-22 08:11:00,
2013-06-22 04:16:00,74.5,70.7,30.04,North,0,0.0,0.0,88,0.00,,,0.00,WUHU216HW,2013-06-22 08:16:00,
2013-06-22 04:21:00,74.5,70.7,30.04,North,0,0.0,0.0,88,0.00,,,0.00,WUHU216HW,2013-06-22 08:21:00,
2013-06-22 04:26:00,74.3,70.6,30.04,North,0,0.0,0.0,88,0.00,,,0.00,WUHU216HW,2013-06-22 08:26:00,
2013-06-22 04:31:00,74.3,70.6,30.04,North,0,0.0,0.0,88,0.00,,,0.00,WUHU216HW,2013-06-22 08:31:00,
2013-06-22 04:36:00,74.3,70.6,30.04,North,0,0.0,0.0,88,0.00,,,0.00,WUHU216HW,2013-06-22 08:36:00,
2013-06-22 04:41:00,74.3,70.6,30.04,North,0,0.0,0.0,88,0.00,,,0.00,WUHU216HW,2013-06-22 08:41:00,
2013-06-22 04:46:00,74.3,70.6,30.04,North,0,0.0,0.0,88,0.00,,,0.00,WUHU216HW,2013-06-22 08:46:00,
2013-06-22 04:51:00,74.2,70.4,30.04,North,0,0.0,0.0,88,0.00,,,0.00,WUHU216HW,2013-06-22 08:51:00,
2013-06-22 04:56:00,74.2,70.4,30.04,North,0,0.0,0.0,88,0.00,,,0.00,WUHU216HW,2013-06-22 08:56:00,
2013-06-22 05:01:00,74.3,70.6,30.04,North,0,0.0,0.0,88,0.00,,,0.00,WUHU216HW,2013-06-22 09:01:00,
2013-06-22 05:06:00,74.3,70.6,30.04,North,0,0.0,0.0,88,0.00,,,0.00,WUHU216HW,2013-06-22 09:06:00,
2013-06-22 05:11:00,74.3,70.6,30.05,North,0,0.0,0.0,88,0.00,,,0.00,WUHU216HW,2013-06-22 09:11:00,
2013-06-22 05:16:00,74.3,70.6,30.05,North,0,0.0,0.0,88,0.00,,,0.00,WUHU216HW,2013-06-22 09:16:00,
2013-06-22 05:21:00,74.3,70.6,30.05,North,0,0.0,0.0,88,0.00,,,0.00,WUHU216HW,2013-06-22 09:21:00,
2013-06-22 05:26:00,74.2,70.4,30.05,North,0,0.0,0.0,88,0.00,,,0.00,WUHU216HW,2013-06-22 09:26:00,
2013-06-22 05:31:00,74.2,70.4,30.05,North,0,0.0,0.0,88,0.00,,,0.00,WUHU216HW,2013-06-22 09:31:00,
2013-06-22 05:36:00,74.2,70.4,30.05,North,0,0.0,0.0,88,0.00,,,0.00,WUHU216HW,2013-06-22 09:36:00,
2013-06-22 05:41:00,74.2,70.7,30.05,North,0,0.0,0.0,89,0.00,,,0.00,WUHU216HW,2013-06-22 09:41:00,
2013-06-22 05:46:00,74.2,70.7,30.05,North,0,0.0,0.0,89,0.00,,,0.00,WUHU216HW,2013-06-22 09:46:00,
2013-06-22 05:51:00,74.2,70.7,30.05,North,0,0.0,0.0,89,0.00,,,0.00,WUHU216HW,2013-06-22 09:51:00,
2013-06-22 05:56:00,74.2,70.7,30.05,North,0,0.0,0.0,89,0.00,,,0.00,WUHU216HW,2013-06-22 09:56:00,
2013-06-22 06:01:00,74.2,70.7,30.05,North,0,0.0,0.0,89,0.00,,,0.00,WUHU216HW,2013-06-22 10:01:00,
2013-06-22 06:06:00,74.2,70.7,30.05,North,0,0.0,0.0,89,0.00,,,0.00,WUHU216HW,2013-06-22 10:06:00,
2013-06-22 06:11:00,74.2,70.7,30.05,North,0,0.0,0.0,89,0.00,,,0.00,WUHU216HW,2013-06-22 10:11:00,
2013-06-22 06:16:00,74.2,70.7,30.05,North,0,0.0,0.0,89,0.00,,,0.00,WUHU216HW,2013-06-22 10:16:00,
2013-06-22 06:21:00,74.2,70.7,30.05,North,0,0.0,0.0,89,0.00,,,0.00,WUHU216HW,2013-06-22 10:21:00,
2013-06-22 06:26:00,74.2,70.7,30.05,North,0,0.0,0.0,89,0.00,,,0.00,WUHU216HW,2013-06-22 10:26:00,
2013-06-22 06:31:00,74.2,70.7,30.05,North,0,0.0,0.0,89,0.00,,,0.00,WUHU216HW,2013-06-22 10:31:00,
2013-06-22 06:36:00,74.3,70.9,30.05,North,0,0.0,0.0,89,0.00,,,0.00,WUHU216HW,2013-06-22 10:36:00,
2013-06-22 06:41:00,74.3,70.9,30.05,North,0,0.0,0.0,89,0.00,,,0.00,WUHU216HW,2013-06-22 10:41:00,
2013-06-22 06:46:00,74.3,70.9,30.05,North,0,0.0,0.0,89,0.00,,,0.00,WUHU216HW,2013-06-22 10:46:00,
2013-06-22 06:51:00,74.3,70.9,30.05,North,0,0.0,0.0,89,0.00,,,0.00,WUHU216HW,2013-06-22 10:51:00,
2013-06-22 06:56:00,74.3,70.9,30.05,North,0,0.0,0.0,89,0.00,,,0.00,WUHU216HW,2013-06-22 10:56:00,
2013-06-22 07:01:00,74.3,70.9,30.05,North,0,0.0,0.0,89,0.00,,,0.00,WUHU216HW,2013-06-22 11:01:00,
2013-06-22 07:06:00,74.3,70.9,30.05,North,0,0.0,0.0,89,0.00,,,0.00,WUHU216HW,2013-06-22 11:06:00,
2013-06-22 07:11:00,74.3,70.9,30.05,North,0,0.0,0.0,89,0.00,,,0.00,WUHU216HW,2013-06-22 11:11:00,
2013-06-22 07:16:00,74.3,70.9,30.06,North,0,0.0,0.0,89,0.00,,,0.00,WUHU216HW,2013-06-22 11:16:00,
2013-06-22 07:21:00,74.3,70.9,30.06,North,0,0.0,0.0,89,0.00,,,0.00,WUHU216HW,2013-06-22 11:21:00,
2013-06-22 07:26:00,74.3,70.9,30.06,North,0,0.0,0.0,89,0.00,,,0.00,WUHU216HW,2013-06-22 11:26:00,
2013-06-22 07:31:00,74.5,71.1,30.06,North,0,0.0,0.0,89,0.00,,,0.00,WUHU216HW,2013-06-22 11:31:00,
2013-06-22 07:36:00,74.5,71.1,30.06,North,0,0.0,0.0,89,0.00,,,0.00,WUHU216HW,2013-06-22 11:36:00,
2013-06-22 07:41:00,74.5,71.1,30.07,North,0,0.0,0.0,89,0.00,,,0.00,WUHU216HW,2013-06-22 11:41:00,
2013-06-22 07:46:00,74.7,71.3,30.07,North,0,0.0,0.0,89,0.00,,,0.00,WUHU216HW,2013-06-22 11:46:00,
2013-06-22 07:51:00,74.7,71.6,30.07,North,0,0.0,0.0,90,0.00,,,0.00,WUHU216HW,2013-06-22 11:51:00,
2013-06-22 07:56:00,74.9,71.8,30.07,North,0,0.0,0.0,90,0.00,,,0.00,WUHU216HW,2013-06-22 11:56:00,
2013-06-22 08:01:00,74.9,71.8,30.07,North,0,0.0,0.0,90,0.00,,,0.00,WUHU216HW,2013-06-22 12:01:00,
2013-06-22 08:06:00,75.1,72.0,30.07,North,0,0.0,0.0,90,0.00,,,0.00,WUHU216HW,2013-06-22 12:06:00,
2013-06-22 08:11:00,75.2,72.2,30.07,North,0,0.0,0.0,90,0.00,,,0.00,WUHU216HW,2013-06-22 12:11:00,
2013-06-22 08:16:00,75.2,72.2,30.07,North,0,0.0,0.0,90,0.00,,,0.00,WUHU216HW,2013-06-22 12:16:00,
2013-06-22 08:21:00,75.4,72.4,30.08,North,0,0.0,0.0,90,0.00,,,0.00,WUHU216HW,2013-06-22 12:21:00,
2013-06-22 08:26:00,75.6,72.5,30.08,North,0,0.0,0.0,90,0.00,,,0.00,WUHU216HW,2013-06-22 12:26:00,
2013-06-22 08:31:00,75.6,72.8,30.08,North,0,0.0,0.0,91,0.00,,,0.00,WUHU216HW,2013-06-22 12:31:00,
2013-06-22 08:36:00,75.8,73.0,30.08,North,0,0.0,0.0,91,0.00,,,0.00,WUHU216HW,2013-06-22 12:36:00,
2013-06-22 08:41:00,76.0,73.2,30.08,North,0,0.0,0.0,91,0.00,,,0.00,WUHU216HW,2013-06-22 12:41:00,
2013-06-22 08:46:00,76.0,73.2,30.08,North,0,0.0,0.0,91,0.00,,,0.00,WUHU216HW,2013-06-22 12:46:00,
2013-06-22 08:51:00,76.1,73.4,30.08,North,0,0.0,0.0,91,0.00,,,0.00,WUHU216HW,2013-06-22 12:51:00,
2013-06-22 08:56:00,76.3,73.5,30.09,North,0,0.0,0.0,91,0.00,,,0.00,WUHU216HW,2013-06-22 12:56:00,
2013-06-22 09:01:00,76.5,73.7,30.09,North,0,0.0,0.0,91,0.00,,,0.00,WUHU216HW,2013-06-22 13:01:00,
2013-06-22 09:06:00,76.7,73.9,30.09,North,0,0.0,0.0,91,0.00,,,0.00,WUHU216HW,2013-06-22 13:06:00,
2013-06-22 09:11:00,76.9,74.1,30.09,North,0,0.0,0.0,91,0.00,,,0.00,WUHU216HW,2013-06-22 13:11:00,
2013-06-22 09:16:00,77.0,74.3,30.09,North,0,0.0,0.0,91,0.00,,,0.00,WUHU216HW,2013-06-22 13:16:00,
2013-06-22 09:21:00,77.2,74.4,30.09,North,0,0.0,0.0,91,0.00,,,0.00,WUHU216HW,2013-06-22 13:21:00,
2013-06-22 09:26:00,77.4,74.6,30.09,North,0,0.0,0.0,91,0.00,,,0.00,WUHU216HW,2013-06-22 13:26:00,
2013-06-22 09:31:00,77.6,74.8,30.09,North,0,0.0,0.0,91,0.00,,,0.00,WUHU216HW,2013-06-22 13:31:00,
2013-06-22 09:36:00,77.9,75.2,30.09,North,0,0.0,0.0,91,0.00,,,0.00,WUHU216HW,2013-06-22 13:36:00,
2013-06-22 09:41:00,78.1,75.1,30.09,North,0,0.0,0.0,90,0.00,,,0.00,WUHU216HW,2013-06-22 13:41:00,
2013-06-22 09:46:00,78.5,75.4,30.09,North,0,0.0,0.0,90,0.00,,,0.00,WUHU216HW,2013-06-22 13:46:00,
2013-06-22 09:51:00,78.8,75.4,30.09,North,0,0.0,0.0,89,0.00,,,0.00,WUHU216HW,2013-06-22 13:51:00,
2013-06-22 09:56:00,79.2,75.8,30.09,North,0,0.0,0.0,89,0.00,,,0.00,WUHU216HW,2013-06-22 13:56:00,
2013-06-22 10:01:00,79.7,75.9,30.09,North,0,0.0,0.0,88,0.00,,,0.00,WUHU216HW,2013-06-22 14:01:00,
2013-06-22 10:06:00,80.3,76.1,30.09,North,0,0.0,0.0,87,0.00,,,0.00,WUHU216HW,2013-06-22 14:06:00,
2013-06-22 10:11:00,80.6,76.1,30.09,North,0,0.0,0.0,86,0.00,,,0.00,WUHU216HW,2013-06-22 14:11:00,
2013-06-22 10:16:00,81.2,77.0,30.09,North,0,0.0,0.0,87,0.00,,,0.00,WUHU216HW,2013-06-22 14:16:00,
2013-06-22 10:21:00,81.5,77.0,30.09,North,0,0.0,0.0,86,0.00,,,0.00,WUHU216HW,2013-06-22 14:21:00,
2013-06-22 10:26:00,82.1,77.1,30.09,North,0,0.0,0.0,85,0.00,,,0.00,WUHU216HW,2013-06-22 14:26:00,
2013-06-22 10:31:00,82.4,77.1,30.09,North,0,0.0,0.0,84,0.00,,,0.00,WUHU216HW,2013-06-22 14:31:00,
2013-06-22 10:36:00,83.0,77.3,30.09,North,0,0.0,0.0,83,0.00,,,0.00,WUHU216HW,2013-06-22 14:36:00,
2013-06-22 10:41:00,83.3,77.3,30.09,North,0,0.0,0.0,82,0.00,,,0.00,WUHU216HW,2013-06-22 14:41:00,
2013-06-22 10:46:00,83.3,77.3,30.09,North,0,0.0,0.0,82,0.00,,,0.00,WUHU216HW,2013-06-22 14:46:00,
2013-06-22 10:51:00,83.2,76.8,30.09,North,0,0.0,0.0,81,0.00,,,0.00,WUHU216HW,2013-06-22 14:51:00,
2013-06-22 10:56:00,83.2,76.4,30.09,North,0,0.0,0.0,80,0.00,,,0.00,WUHU216HW,2013-06-22 14:56:00,
2013-06-22 11:01:00,83.5,76.8,30.09,North,0,0.0,0.0,80,0.00,,,0.00,WUHU216HW,2013-06-22 15:01:00,
2013-06-22 11:07:00,83.7,76.5,30.09,North,0,0.0,0.0,79,0.00,,,0.00,WUHU216HW,2013-06-22 15:07:00,
2013-06-22 11:12:00,84.2,77.1,30.09,North,0,0.0,0.0,79,0.00,,,0.00,WUHU216HW,2013-06-22 15:12:00,
2013-06-22 11:17:00,84.6,77.0,30.09,North,0,0.0,0.0,78,0.00,,,0.00,WUHU216HW,2013-06-22 15:17:00,
2013-06-22 11:22:00,85.0,77.3,30.09,North,0,0.0,0.0,78,0.00,,,0.00,WUHU216HW,2013-06-22 15:22:00,
2013-06-22 11:26:00,84.8,76.8,30.09,North,0,0.0,0.0,77,0.00,,,0.00,WUHU216HW,2013-06-22 15:26:00,
2013-06-22 11:31:00,84.8,76.3,30.09,North,0,0.0,0.0,76,0.00,,,0.00,WUHU216HW,2013-06-22 15:31:00,
2013-06-22 11:36:00,84.8,76.3,30.09,North,0,0.0,0.0,76,0.00,,,0.00,WUHU216HW,2013-06-22 15:36:00,
2013-06-22 11:41:00,85.1,76.7,30.10,North,0,0.0,0.0,76,0.00,,,0.00,WUHU216HW,2013-06-22 15:41:00,
2013-06-22 11:46:00,85.5,77.0,30.10,North,0,0.0,0.0,76,0.00,,,0.00,WUHU216HW,2013-06-22 15:46:00,
2013-06-22 11:51:00,86.0,77.2,30.10,North,0,0.0,0.0,75,0.00,,,0.00,WUHU216HW,2013-06-22 15:51:00,
2013-06-22 11:56:00,86.2,77.0,30.10,North,0,0.0,0.0,74,0.00,,,0.00,WUHU216HW,2013-06-22 15:56:00,
2013-06-22 12:01:00,86.4,77.1,30.10,North,0,0.0,0.0,74,0.00,,,0.00,WUHU216HW,2013-06-22 16:01:00,
2013-06-22 12:06:00,86.8,77.5,30.09,North,0,0.0,0.0,74,0.00,,,0.00,WUHU216HW,2013-06-22 16:06:00,
2013-06-22 12:11:00,86.8,76.7,30.09,North,0,0.0,0.0,72,0.00,,,0.00,WUHU216HW,2013-06-22 16:11:00,
2013-06-22 12:16:00,86.8,75.9,30.09,North,0,0.0,0.0,70,0.00,,,0.00,WUHU216HW,2013-06-22 16:16:00,
2013-06-22 12:21:00,86.8,76.3,30.09,North,0,0.0,0.0,71,0.00,,,0.00,WUHU216HW,2013-06-22 16:21:00,
2013-06-22 12:26:00,86.8,76.3,30.09,North,0,0.0,0.0,71,0.00,,,0.00,WUHU216HW,2013-06-22 16:26:00,
2013-06-22 12:31:00,86.9,75.6,30.09,North,0,0.0,0.0,69,0.00,,,0.00,WUHU216HW,2013-06-22 16:31:00,
2013-06-22 12:36:00,87.1,75.8,30.09,North,0,0.0,0.0,69,0.00,,,0.00,WUHU216HW,2013-06-22 16:36:00,
2013-06-22 12:41:00,87.1,75.8,30.09,North,0,0.0,0.0,69,0.00,,,0.00,WUHU216HW,2013-06-22 16:41:00,
2013-06-22 12:46:00,87.3,76.4,30.09,North,0,0.0,0.0,70,0.00,,,0.00,WUHU216HW,2013-06-22 16:46:00,
2013-06-22 12:51:00,87.1,75.8,30.09,North,0,0.0,0.0,69,0.00,,,0.00,WUHU216HW,2013-06-22 16:51:00,
2013-06-22 12:56:00,86.9,75.6,30.09,North,0,0.0,0.0,69,0.00,,,0.00,WUHU216HW,2013-06-22 16:56:00,
2013-06-22 13:01:00,86.9,76.1,30.09,North,0,0.0,0.0,70,0.00,,,0.00,WUHU216HW,2013-06-22 17:01:00,
2013-06-22 13:06:00,87.1,75.3,30.09,North,0,0.0,0.0,68,0.00,,,0.00,WUHU216HW,2013-06-22 17:06:00,
2013-06-22 13:11:00,87.1,75.8,30.09,North,0,0.0,0.0,69,0.00,,,0.00,WUHU216HW,2013-06-22 17:11:00,
2013-06-22 13:16:00,87.1,75.8,30.08,North,0,0.0,0.0,69,0.00,,,0.00,WUHU216HW,2013-06-22 17:16:00,
2013-06-22 13:21:00,86.9,75.6,30.08,North,0,0.0,0.0,69,0.00,,,0.00,WUHU216HW,2013-06-22 17:21:00,
2013-06-22 13:26:00,86.8,75.4,30.08,North,0,0.0,0.0,69,0.00,,,0.00,WUHU216HW,2013-06-22 17:26:00,
2013-06-22 13:31:00,86.8,75.4,30.08,North,0,0.0,0.0,69,0.00,,,0.00,WUHU216HW,2013-06-22 17:31:00,
2013-06-22 13:36:00,86.9,76.1,30.08,North,0,0.0,0.0,70,0.00,,,0.00,WUHU216HW,2013-06-22 17:36:00,
2013-06-22 13:41:00,87.1,75.8,30.08,North,0,0.0,0.0,69,0.00,,,0.00,WUHU216HW,2013-06-22 17:41:00,
2013-06-22 13:46:00,87.3,75.0,30.08,North,0,0.0,0.0,67,0.00,,,0.00,WUHU216HW,2013-06-22 17:46:00,
2013-06-22 13:51:00,87.1,74.9,30.08,North,0,0.0,0.0,67,0.00,,,0.00,WUHU216HW,2013-06-22 17:51:00,
2013-06-22 13:56:00,86.9,74.7,30.07,North,0,0.0,0.0,67,0.00,,,0.00,WUHU216HW,2013-06-22 17:56:00,
2013-06-22 14:01:00,86.8,74.5,30.07,North,0,0.0,0.0,67,0.00,,,0.00,WUHU216HW,2013-06-22 18:01:00,
2013-06-22 14:06:00,86.6,74.8,30.07,North,0,0.0,0.0,68,0.00,,,0.00,WUHU216HW,2013-06-22 18:06:00,
2013-06-22 14:11:00,86.6,75.2,30.07,North,0,0.0,0.0,69,0.00,,,0.00,WUHU216HW,2013-06-22 18:11:00,
2013-06-22 14:16:00,86.6,74.8,30.07,North,0,0.0,0.0,68,0.00,,,0.00,WUHU216HW,2013-06-22 18:16:00,
2013-06-22 14:21:00,86.6,75.2,30.06,North,0,0.0,0.0,69,0.00,,,0.00,WUHU216HW,2013-06-22 18:21:00,
2013-06-22 14:26:00,86.4,74.2,30.06,North,0,0.0,0.0,67,0.00,,,0.00,WUHU216HW,2013-06-22 18:26:00,
2013-06-22 14:31:00,86.2,74.4,30.06,North,0,0.0,0.0,68,0.00,,,0.00,WUHU216HW,2013-06-22 18:31:00,
2013-06-22 14:36:00,86.2,74.0,30.06,North,0,0.0,0.0,67,0.00,,,0.00,WUHU216HW,2013-06-22 18:36:00,
2013-06-22 14:41:00,86.0,74.4,30.05,North,0,0.0,0.0,68,0.00,,,0.00,WUHU216HW,2013-06-22 18:41:00,
2013-06-22 14:46:00,86.0,74.4,30.05,North,0,0.0,0.0,68,0.00,,,0.00,WUHU216HW,2013-06-22 18:46:00,
2013-06-22 14:51:00,86.4,74.2,30.06,North,0,0.0,0.0,67,0.00,,,0.00,WUHU216HW,2013-06-22 18:51:00,
2013-06-22 14:56:00,86.8,74.5,30.06,North,0,0.0,0.0,67,0.00,,,0.00,WUHU216HW,2013-06-22 18:56:00,
2013-06-22 15:01:00,86.9,74.3,30.05,North,0,0.0,0.0,66,0.00,,,0.00,WUHU216HW,2013-06-22 19:01:00,
2013-06-22 15:06:00,87.1,73.9,30.05,North,0,0.0,0.0,65,0.00,,,0.00,WUHU216HW,2013-06-22 19:06:00,
2013-06-22 15:11:00,87.3,73.6,30.05,North,0,0.0,0.0,64,0.00,,,0.00,WUHU216HW,2013-06-22 19:11:00,
2013-06-22 15:16:00,87.5,72.9,30.04,North,0,0.0,0.0,62,0.00,,,0.00,WUHU216HW,2013-06-22 19:16:00,
2013-06-22 15:21:00,87.5,72.5,30.04,North,0,0.0,0.0,61,0.00,,,0.00,WUHU216HW,2013-06-22 19:21:00,
2013-06-22 15:26:00,87.7,73.1,30.04,North,0,0.0,0.0,62,0.00,,,0.00,WUHU216HW,2013-06-22 19:26:00,
2013-06-22 15:31:00,87.8,72.4,30.04,North,0,0.0,0.0,60,0.00,,,0.00,WUHU216HW,2013-06-22 19:31:00,
2013-06-22 15:36:00,87.8,72.8,30.04,North,0,0.0,0.0,61,0.00,,,0.00,WUHU216HW,2013-06-22 19:36:00,
2013-06-22 15:41:00,87.8,72.8,30.04,North,0,0.0,0.0,61,0.00,,,0.00,WUHU216HW,2013-06-22 19:41:00,
2013-06-22 15:46:00,88.0,72.6,30.04,North,0,0.0,0.0,60,0.00,,,0.00,WUHU216HW,2013-06-22 19:46:00,
2013-06-22 15:51:00,88.2,72.7,30.04,North,0,0.0,0.0,60,0.00,,,0.00,WUHU216HW,2013-06-22 19:51:00,
2013-06-22 15:56:00,88.2,72.7,30.04,North,0,0.0,0.0,60,0.00,,,0.00,WUHU216HW,2013-06-22 19:56:00,
2013-06-22 16:01:00,88.2,72.7,30.04,North,0,0.0,0.0,60,0.00,,,0.00,WUHU216HW,2013-06-22 20:01:00,
2013-06-22 16:06:00,88.4,72.8,30.04,North,0,0.0,0.0,60,0.00,,,0.00,WUHU216HW,2013-06-22 20:06:00,
2013-06-22 16:11:00,88.4,72.8,30.04,North,0,0.0,0.0,60,0.00,,,0.00,WUHU216HW,2013-06-22 20:11:00,
2013-06-22 16:16:00,88.6,73.0,30.03,North,0,0.0,0.0,60,0.00,,,0.00,WUHU216HW,2013-06-22 20:16:00,
2013-06-22 16:21:00,88.6,73.0,30.03,North,0,0.0,0.0,60,0.00,,,0.00,WUHU216HW,2013-06-22 20:21:00,
2013-06-22 16:26:00,88.6,71.9,30.04,North,0,0.0,0.0,58,0.00,,,0.00,WUHU216HW,2013-06-22 20:26:00,
2013-06-22 16:31:00,88.6,71.9,30.04,North,0,0.0,0.0,58,0.00,,,0.00,WUHU216HW,2013-06-22 20:31:00,
2013-06-22 16:36:00,88.6,73.4,30.04,North,0,0.0,0.0,61,0.00,,,0.00,WUHU216HW,2013-06-22 20:36:00,
2013-06-22 16:41:00,88.2,73.6,30.04,North,0,0.0,0.0,62,0.00,,,0.00,WUHU216HW,2013-06-22 20:41:00,
2013-06-22 16:46:00,87.7,73.5,30.04,North,0,0.0,0.0,63,0.00,,,0.00,WUHU216HW,2013-06-22 20:46:00,
2013-06-22 16:51:00,87.3,73.6,30.04,North,0,0.0,0.0,64,0.00,,,0.00,WUHU216HW,2013-06-22 20:51:00,
2013-06-22 16:56:00,86.8,73.1,30.04,North,0,0.0,0.0,64,0.00,,,0.00,WUHU216HW,2013-06-22 20:56:00,
2013-06-22 17:01:00,86.8,73.1,30.04,North,0,0.0,0.0,64,0.00,,,0.00,WUHU216HW,2013-06-22 21:01:00,
2013-06-22 17:06:00,86.6,73.5,30.03,North,0,0.0,0.0,65,0.00,,,0.00,WUHU216HW,2013-06-22 21:06:00,
2013-06-22 17:11:00,86.4,72.8,30.04,North,0,0.0,0.0,64,0.00,,,0.00,WUHU216HW,2013-06-22 21:11:00,
2013-06-22 17:16:00,86.2,73.1,30.03,North,0,0.0,0.0,65,0.00,,,0.00,WUHU216HW,2013-06-22 21:16:00,
2013-06-22 17:21:00,86.0,73.4,30.04,North,0,0.0,0.0,66,0.00,,,0.00,WUHU216HW,2013-06-22 21:21:00,
2013-06-22 17:26:00,85.7,73.0,30.03,North,0,0.0,0.0,66,0.00,,,0.00,WUHU216HW,2013-06-22 21:26:00,
2013-06-22 17:31:00,85.3,72.7,30.03,North,0,0.0,0.0,66,0.00,,,0.00,WUHU216HW,2013-06-22 21:31:00,
2013-06-22 17:36:00,85.3,73.2,30.03,North,0,0.0,0.0,67,0.00,,,0.00,WUHU216HW,2013-06-22 21:36:00,
2013-06-22 17:41:00,85.1,73.0,30.03,North,0,0.0,0.0,67,0.00,,,0.00,WUHU216HW,2013-06-22 21:41:00,
2013-06-22 17:46:00,85.0,72.8,30.03,North,0,0.0,0.0,67,0.00,,,0.00,WUHU216HW,2013-06-22 21:46:00,
2013-06-22 17:51:00,84.8,72.6,30.03,North,0,0.0,0.0,67,0.00,,,0.00,WUHU216HW,2013-06-22 21:51:00,
2013-06-22 17:56:00,84.6,72.9,30.03,North,0,0.0,0.0,68,0.00,,,0.00,WUHU216HW,2013-06-22 21:56:00,
2013-06-22 18:01:00,84.6,72.9,30.02,North,0,0.0,0.0,68,0.00,,,0.00,WUHU216HW,2013-06-22 22:01:00,
2013-06-22 18:06:00,84.6,72.9,30.03,North,0,0.0,0.0,68,0.00,,,0.00,WUHU216HW,2013-06-22 22:06:00,
2013-06-22 18:11:00,84.4,73.2,30.03,North,0,0.0,0.0,69,0.00,,,0.00,WUHU216HW,2013-06-22 22:11:00,
2013-06-22 18:16:00,84.4,73.6,30.03,North,0,0.0,0.0,70,0.00,,,0.00,WUHU216HW,2013-06-22 22:16:00,
2013-06-22 18:21:00,84.2,73.0,30.03,North,0,0.0,0.0,69,0.00,,,0.00,WUHU216HW,2013-06-22 22:21:00,
2013-06-22 18:26:00,84.2,73.0,30.03,North,0,0.0,0.0,69,0.00,,,0.00,WUHU216HW,2013-06-22 22:26:00,
2013-06-22 18:31:00,84.1,73.3,30.03,North,0,0.0,0.0,70,0.00,,,0.00,WUHU216HW,2013-06-22 22:31:00,
2013-06-22 18:36:00,83.9,73.4,30.03,North,0,0.0,0.0,71,0.00,,,0.00,WUHU216HW,2013-06-22 22:36:00,
2013-06-22 18:41:00,83.9,73.4,30.03,North,0,0.0,0.0,71,0.00,,,0.00,WUHU216HW,2013-06-22 22:41:00,
2013-06-22 18:46:00,83.9,73.9,30.03,North,0,0.0,0.0,72,0.00,,,0.00,WUHU216HW,2013-06-22 22:46:00,
2013-06-22 18:51:00,83.9,73.9,30.03,North,0,0.0,0.0,72,0.00,,,0.00,WUHU216HW,2013-06-22 22:51:00,
2013-06-22 18:56:00,83.7,73.7,30.03,North,0,0.0,0.0,72,0.00,,,0.00,WUHU216HW,2013-06-22 22:56:00,
2013-06-22 19:01:00,83.5,73.1,30.03,North,0,0.0,0.0,71,0.00,,,0.00,WUHU216HW,2013-06-22 23:01:00,
2013-06-22 19:06:00,83.5,73.5,30.03,North,0,0.0,0.0,72,0.00,,,0.00,WUHU216HW,2013-06-22 23:06:00,
2013-06-22 19:11:00,83.5,73.5,30.03,North,0,0.0,0.0,72,0.00,,,0.00,WUHU216HW,2013-06-22 23:11:00,
2013-06-22 19:16:00,83.3,73.4,30.03,North,0,0.0,0.0,72,0.00,,,0.00,WUHU216HW,2013-06-22 23:16:00,
2013-06-22 19:21:00,83.2,73.2,30.03,North,0,0.0,0.0,72,0.00,,,0.00,WUHU216HW,2013-06-22 23:21:00,
2013-06-22 19:26:00,83.2,73.2,30.03,North,0,0.0,0.0,72,0.00,,,0.00,WUHU216HW,2013-06-22 23:26:00,
2013-06-22 19:31:00,83.0,73.0,30.04,North,0,0.0,0.0,72,0.00,,,0.00,WUHU216HW,2013-06-22 23:31:00,
2013-06-22 19:36:00,83.0,73.0,30.04,North,0,0.0,0.0,72,0.00,,,0.00,WUHU216HW,2013-06-22 23:36:00,
2013-06-22 19:41:00,82.8,72.8,30.04,North,0,0.0,0.0,72,0.00,,,0.00,WUHU216HW,2013-06-22 23:41:00,
2013-06-22 19:46:00,82.6,72.6,30.04,North,0,0.0,0.0,72,0.00,,,0.00,WUHU216HW,2013-06-22 23:46:00,
2013-06-22 19:51:00,82.4,72.9,30.04,North,0,0.0,0.0,73,0.00,,,0.00,WUHU216HW,2013-06-22 23:51:00,
2013-06-22 19:56:00,82.4,72.9,30.04,North,0,0.0,0.0,73,0.00,,,0.00,WUHU216HW,2013-06-22 23:56:00,
2013-06-22 20:01:00,82.4,72.9,30.04,North,0,0.0,0.0,73,0.00,,,0.00,WUHU216HW,2013-06-23 00:01:00,
2013-06-22 20:06:00,82.3,73.2,30.04,North,0,0.0,0.0,74,0.00,,,0.00,WUHU216HW,2013-06-23 00:06:00,
2013-06-22 20:11:00,82.3,73.2,30.04,North,0,0.0,0.0,74,0.00,,,0.00,WUHU216HW,2013-06-23 00:11:00,
2013-06-22 20:16:00,82.1,72.5,30.04,North,0,0.0,0.0,73,0.00,,,0.00,WUHU216HW,2013-06-23 00:16:00,
2013-06-22 20:21:00,81.9,72.4,30.04,North,0,0.0,0.0,73,0.00,,,0.00,WUHU216HW,2013-06-23 00:21:00,
2013-06-22 20:26:00,81.9,72.4,30.04,North,0,0.0,0.0,73,0.00,,,0.00,WUHU216HW,2013-06-23 00:26:00,
2013-06-22 20:31:00,81.9,72.4,30.04,North,0,0.0,0.0,73,0.00,,,0.00,WUHU216HW,2013-06-23 00:31:00,
2013-06-22 20:36:00,81.7,72.6,30.04,North,0,0.0,0.0,74,0.00,,,0.00,WUHU216HW,2013-06-23 00:36:00,
2013-06-22 20:41:00,81.7,72.6,30.04,North,0,0.0,0.0,74,0.00,,,0.00,WUHU216HW,2013-06-23 00:41:00,
2013-06-22 20:46:00,81.5,72.5,30.05,North,0,0.0,0.0,74,0.00,,,0.00,WUHU216HW,2013-06-23 00:46:00,
2013-06-22 20:51:00,81.5,72.5,30.05,North,0,0.0,0.0,74,0.00,,,0.00,WUHU216HW,2013-06-23 00:51:00,
2013-06-22 20:56:00,81.4,72.7,30.05,North,0,0.0,0.0,75,0.00,,,0.00,WUHU216HW,2013-06-23 00:56:00,
2013-06-22 21:01:00,81.2,72.6,30.05,North,0,0.0,0.0,75,0.00,,,0.00,WUHU216HW,2013-06-23 01:01:00,
2013-06-22 21:06:00,81.0,72.4,30.05,North,0,0.0,0.0,75,0.00,,,0.00,WUHU216HW,2013-06-23 01:06:00,
2013-06-22 21:11:00,81.0,72.4,30.05,North,0,0.0,0.0,75,0.00,,,0.00,WUHU216HW,2013-06-23 01:11:00,
2013-06-22 21:16:00,81.0,72.7,30.06,North,0,0.0,0.0,76,0.00,,,0.00,WUHU216HW,2013-06-23 01:16:00,
2013-06-22 21:21:00,80.8,72.5,30.06,North,0,0.0,0.0,76,0.00,,,0.00,WUHU216HW,2013-06-23 01:21:00,
2013-06-22 21:26:00,80.8,72.5,30.06,North,0,0.0,0.0,76,0.00,,,0.00,WUHU216HW,2013-06-23 01:26:00,
2013-06-22 21:31:00,80.6,72.4,30.06,North,0,0.0,0.0,76,0.00,,,0.00,WUHU216HW,2013-06-23 01:31:00,
2013-06-22 21:36:00,80.6,72.8,30.06,North,0,0.0,0.0,77,0.00,,,0.00,WUHU216HW,2013-06-23 01:36:00,
2013-06-22 21:41:00,80.5,72.6,30.06,North,0,0.0,0.0,77,0.00,,,0.00,WUHU216HW,2013-06-23 01:41:00,
2013-06-22 21:46:00,80.5,72.6,30.07,North,0,0.0,0.0,77,0.00,,,0.00,WUHU216HW,2013-06-23 01:46:00,
2013-06-22 21:51:00,80.3,72.5,30.06,North,0,0.0,0.0,77,0.00,,,0.00,WUHU216HW,2013-06-23 01:51:00,
2013-06-22 21:56:00,80.3,72.8,30.07,North,0,0.0,0.0,78,0.00,,,0.00,WUHU216HW,2013-06-23 01:56:00,
2013-06-22 22:01:00,80.3,72.8,30.07,North,0,0.0,0.0,78,0.00,,,0.00,WUHU216HW,2013-06-23 02:01:00,
2013-06-22 22:06:00,80.3,72.8,30.07,North,0,0.0,0.0,78,0.00,,,0.00,WUHU216HW,2013-06-23 02:06:00,
2013-06-22 22:11:00,80.3,72.8,30.07,North,0,0.0,0.0,78,0.00,,,0.00,WUHU216HW,2013-06-23 02:11:00,
2013-06-22 22:16:00,80.1,72.6,30.07,North,0,0.0,0.0,78,0.00,,,0.00,WUHU216HW,2013-06-23 02:16:00,
2013-06-22 22:21:00,79.9,72.5,30.07,North,0,0.0,0.0,78,0.00,,,0.00,WUHU216HW,2013-06-23 02:21:00,
2013-06-22 22:26:00,79.9,72.9,30.07,North,0,0.0,0.0,79,0.00,,,0.00,WUHU216HW,2013-06-23 02:26:00,
2013-06-22 22:31:00,79.9,72.9,30.07,North,0,0.0,0.0,79,0.00,,,0.00,WUHU216HW,2013-06-23 02:31:00,
2013-06-22 22:36:00,79.7,72.7,30.07,North,0,0.0,0.0,79,0.00,,,0.00,WUHU216HW,2013-06-23 02:36:00,
2013-06-22 22:41:00,79.7,72.7,30.07,North,0,0.0,0.0,79,0.00,,,0.00,WUHU216HW,2013-06-23 02:41:00,
2013-06-22 22:46:00,79.7,72.7,30.07,North,0,0.0,0.0,79,0.00,,,0.00,WUHU216HW,2013-06-23 02:46:00,
2013-06-22 22:51:00,79.7,72.7,30.07,North,0,0.0,0.0,79,0.00,,,0.00,WUHU216HW,2013-06-23 02:51:00,
2013-06-22 22:56:00,79.7,72.7,30.07,North,0,0.0,0.0,79,0.00,,,0.00,WUHU216HW,2013-06-23 02:56:00,
2013-06-22 23:01:00,79.7,72.7,30.08,North,0,0.0,0.0,79,0.00,,,0.00,WUHU216HW,2013-06-23 03:01:00,
2013-06-22 23:06:00,79.6,72.1,30.08,North,0,0.0,0.0,78,0.00,,,0.00,WUHU216HW,2013-06-23 03:06:00,
2013-06-22 23:11:00,79.6,72.1,30.08,North,0,0.0,0.0,78,0.00,,,0.00,WUHU216HW,2013-06-23 03:11:00,
2013-06-22 23:16:00,79.6,72.1,30.08,North,0,0.0,0.0,78,0.00,,,0.00,WUHU216HW,2013-06-23 03:16:00,
2013-06-22 23:21:00,79.6,72.1,30.08,North,0,0.0,0.0,78,0.00,,,0.00,WUHU216HW,2013-06-23 03:21:00,
2013-06-22 23:26:00,79.6,72.1,30.08,North,0,0.0,0.0,78,0.00,,,0.00,WUHU216HW,2013-06-23 03:26:00,
2013-06-22 23:31:00,79.6,72.1,30.08,North,0,0.0,0.0,78,0.00,,,0.00,WUHU216HW,2013-06-23 03:31:00,
2013-06-22 23:36:00,79.6,72.1,30.09,North,0,0.0,0.0,78,0.00,,,0.00,WUHU216HW,2013-06-23 03:36:00,
2013-06-22 23:41:00,79.6,72.1,30.08,North,0,0.0,0.0,78,0.00,,,0.00,WUHU216HW,2013-06-23 03:41:00,
2013-06-22 23:46:00,79.6,72.1,30.08,North,0,0.0,0.0,78,0.00,,,0.00,WUHU216HW,2013-06-23 03:46:00,
2013-06-22 23:51:00,79.6,72.1,30.08,North,0,0.0,0.0,78,0.00,,,0.00,WUHU216HW,2013-06-23 03:51:00,
2013-06-22 23:56:00,79.4,71.9,30.08,North,0,0.0,0.0,78,0.00,,,0.00,WUHU216HW,2013-06-23 03:56:00,